Location: Bergheim
(50.9593°N, 6.6400°E)
Time: 10:00:16
(UTC+02:00)

ISS - Pass Details

Date: 24 May 2021
Orbit: 417 x 422 km, 51.6° (Epoch: 13 June)

Event Time Altitude Azimuth Distance (km) Brightness Sun altitude
Rises 22:58:07 0° 282° (WNW) 2,367 0.9 -10.7°
Reaches altitude 10° 23:00:13 10° 281° (WNW) 1,503 -0.2 -10.9°
Maximum altitude 23:03:36 83° 194° (SSW) 428 -3.8 -11.2°
Enters shadow 23:06:34 13° 107° (ESE) 1,342 -1.7 -11.5°
